Temp
54 58 60 61 61 61 52 50 45 49 49 52 54 55 57 59 61 61 60 60 61 62 63 65 66 67 65 65 66 67 67 67 67 67 67 67 66 67 68 68 70 69 68 72
48 60 61 59 61 60 59 57 55 54 51 56 57 58 59 58 59 59 60 62 64 63 64 65 66 66 68 66 66 66 65 65 65 66 66 66 66 66 67 67 67 68 70 70
43 55 56 49 54 58 56 55 53 47 52 57 56 57 55 55 57 59 61 64 63 63 63 64 65 65 64 65 65 66 66 65 65 64 64 63 65 65 66 68 69 70 70 69
46 46 39 52 59 61 59 57 56 58 57 58 56 55 56 56 56 58 61 63 62 63 64 64 65 64 67 66 65 65 65 65 65 64 64 64 65 65 67 68 67 67 68 69
43 40 49 54 56 55 51 51 59 56 59 57 56 59 57 58 58 58 61 60 63 65 65 65 65 65 66 66 64 64 63 64 65 65 65 64 64 64 65 66 66 67 69 69
45 41 39 49 58 61 59 44 59 59 56 54 53 48 52 59 60 61 61 61 62 64 66 65 63 65 65 64 63 61 63 65 65 65 65 64 64 65 65 66 66 67 67 67
45 41 47 57 62 61 44 47 58 58 56 53 51 52 57 60 60 62 62 64 65 65 60 60 60 60 59 59 59 61 63 63 64 63 64 64 64 64 65 65 65 66 67 66
41 38 39 60 62 54 53 55 58 58 58 56 56 58 59 60 61 62 62 65 64 61 60 60 60 59 57 57 59 60 61 62 62 61 63 64 63 64 64 64 64 64 65 66
45 44 52 56 56 58 58 57 57 57 59 58 59 59 60 60 60 60 63 63 62 60 59 59 60 59 58 58 59 59 59 58 59 61 62 62 61 61 63 63 63 62 62 61
48 52 54 56 59 59 59 58 59 59 59 59 58 59 63 60 61 63 64 63 61 61 59 58 59 60 59 59 59 58 57 57 58 59 60 60 61 61 60 63 62 61 59 59
46 50 52 59 60 60 60 61 60 61 62 62 60 62 61 60 61 62 64 62 63 63 63 59 60 59 59 59 59 58 57 57 56 56 55 56 59 60 60 60 59 59 59 58
47 56 54 56 59 60 58 58 59 63 62 63 62 61 63 59 61 62 61 61 64 64 61 59 59 58 59 59 59 57 56 56 56 56 56 56 56 58 56 56 50 50 48 53
57 59 58 59 59 60 57 58 61 63 63 61 66 63 64 61 60 61 62 63 60 60 60 60 59 59 59 59 58 57 55 56 56 56 56 56 56 57 57 58 49 45 45 46
60 60 56 58 57 60 59 62 61 61 62 63 64 63 65 61 60 61 63 63 61 61 60 59 58 58 58 58 57 56 55 55 55 55 56 56 56 56 56 56 56 58 45 47
59 60 58 57 57 57 59 61 60 60 61 62 62 63 63 61 60 61 63 64 62 61 60 59 58 58 58 58 56 56 56 56 56 56 55 56 57 56 56 56 57 57 55 49
58 59 58 56 56 57 57 59 58 57 60 61 63 63 63 65 61 63 65 65 59 58 58 58 57 57 58 56 56 56 56 58 58 56 58 59 62 59 58 59 58 57 56 55
55 52 54 54 57 58 57 57 58 59 60 60 62 63 63 61 59 59 60 61 61 59 59 58 58 59 58 57 56 55 55 56 58 57 58 58 58 59 60 60 59 58 54 53
55 57 57 57 57 57 56 59 60 61 59 61 63 65 62 62 60 61 63 59 60 58 57 59 59 58 57 57 56 56 55 56 57 57 58 57 57 57 57 56 56 55 54 53
58 56 58 58 58 56 58 59 59 59 59 60 61 61 61 60 60 62 63 59 58 56 58 59 61 61 56 59 59 57 56 56 56 56 57 56 56 56 55 56 56 55 55 56
58 59 58 59 60 57 57 61 61 60 61 63 62 60 59 63 64 62 59 57 58 58 58 60 59 57 56 58 60 56 56 56 56 56 56 55 55 55 55 52 55 55 54 52
59 59 60 60 61 61 61 61 61 62 63 61 60 59 62 59 63 57 56 54 59 58 60 60 59 58 56 59 58 56 55 55 55 55 56 58 55 55 54 55 55 55 54 53
57 58 60 60 59 59 61 62 61 60 61 61 61 60 58 57 57 57 58 58 58 56 59 63 58 59 59 59 55 55 55 55 55 55 55 55 54 54 54 55 54 54 55 54
54 55 55 55 56 58 60 61 63 61 61 60 59 58 57 57 56 56 59 62 58 59 62 58 58 58 58 57 55 54 55 55 56 56 56 56 59 55 55 57 57 55 54 54
53 53 52 54 56 56 57 56 60 61 58 58 59 58 58 60 57 56 57 57 56 58 57 57 55 54 54 54 53 53 54 54 57 59 62 54 60 56 56 55 54 56 54 51
52 52 52 54 54 54 55 57 58 57 58 57 60 61 61 57 56 56 56 57 55 55 56 55 54 54 54 54 54 55 55 55 57 58 58 56 55 55 54 54 55 56 55 54
50 52 54 55 55 55 55 55 55 58 59 58 58 56 56 55 55 54 54 53 54 54 54 54 54 54 55 55 56 57 55 56 56 56 57 58 56 54 53 53 52 52 53 54
56 52 54 55 57 57 56 57 58 59 56 55 54 55 55 55 54 54 53 53 53 54 54 54 53 53 54 53 54 54 54 55 53 55 55 56 56 55 55 53 53 51 52 52
MSLP
1010.17 1009.54 1008.91 1008.38 1007.85 1007.66 1007.97 1008.62 1009.10 1008.85 1008.62 1008.15 1008.16 1007.78 1007.23 1006.81 1006.61 1006.45 1006.29 1006.29 1006.30 1005.81 1004.96 1004.28 1003.94 1003.64 1003.00 1003.56 1003.89 1003.35 1003.65 1002.83 1003.30 1004.84 1005.93 1006.79 1006.61 1004.89 1005.44 1006.04 1005.80 1006.37 1007.05 1006.93
1010.15 1009.31 1008.80 1008.30 1007.91 1007.79 1008.00 1008.40 1008.71 1008.79 1008.51 1008.16 1008.23 1008.23 1007.72 1007.07 1006.87 1006.68 1006.09 1005.49 1005.53 1005.14 1004.41 1003.91 1003.78 1003.64 1004.09 1004.80 1004.04 1003.73 1004.06 1003.83 1004.52 1005.44 1005.56 1005.63 1005.22 1005.47 1006.26 1006.37 1006.47 1006.93 1007.08 1007.22
1010.39 1009.66 1009.18 1008.63 1008.12 1008.07 1008.14 1008.51 1008.72 1008.71 1008.37 1007.93 1007.95 1008.27 1008.30 1007.65 1007.40 1006.94 1005.89 1005.59 1005.59 1005.31 1004.81 1004.40 1004.29 1004.52 1004.76 1004.98 1004.58 1003.87 1004.25 1004.70 1004.90 1004.74 1005.19 1004.88 1005.27 1005.50 1005.84 1006.28 1006.43 1006.64 1006.80 1006.61
1010.78 1010.33 1009.60 1008.35 1008.15 1008.25 1008.24 1008.65 1008.55 1008.43 1008.15 1007.79 1007.57 1007.91 1008.24 1008.29 1008.16 1007.47 1006.59 1006.16 1006.03 1005.96 1006.05 1005.63 1005.22 1005.37 1005.46 1005.22 1004.79 1005.21 1004.99 1004.81 1004.84 1004.75 1004.99 1004.78 1005.36 1005.61 1005.84 1005.73 1005.95 1005.79 1005.60 1005.42
1011.10 1010.75 1009.63 1008.87 1008.46 1008.69 1008.76 1008.83 1008.63 1008.41 1008.09 1007.82 1007.57 1007.64 1008.15 1008.24 1008.16 1007.73 1007.08 1007.15 1006.93 1006.73 1006.65 1006.53 1006.18 1005.91 1005.25 1005.20 1005.31 1005.23 1005.23 1005.29 1005.12 1004.90 1005.16 1004.91 1005.36 1005.65 1005.55 1005.15 1005.36 1004.98 1004.99 1005.04
1011.37 1011.07 1010.08 1008.86 1008.22 1008.24 1008.88 1008.93 1008.67 1008.59 1008.26 1008.29 1008.04 1008.09 1008.05 1007.81 1007.64 1007.44 1007.16 1007.24 1006.90 1006.39 1006.29 1006.19 1006.18 1005.88 1005.38 1005.83 1005.78 1005.84 1005.80 1005.72 1005.31 1004.80 1004.93 1005.25 1005.19 1005.30 1005.14 1004.93 1004.70 1004.61 1004.92 1004.88
1011.31 1011.26 1009.82 1008.43 1008.15 1008.29 1008.84 1008.98 1008.43 1008.49 1008.40 1008.67 1008.75 1008.62 1008.22 1007.66 1007.55 1007.03 1007.12 1006.83 1006.66 1006.78 1006.96 1007.10 1006.94 1006.54 1006.53 1006.80 1006.78 1006.56 1006.11 1005.82 1005.39 1005.19 1005.48 1005.37 1005.28 1005.17 1004.78 1004.65 1004.49 1004.50 1004.85 1004.94
1011.88 1011.28 1010.15 1008.68 1008.64 1008.56 1008.20 1008.13 1008.37 1008.24 1008.33 1008.48 1008.42 1008.42 1008.19 1007.60 1007.30 1007.10 1006.89 1006.67 1006.81 1007.14 1007.50 1007.40 1007.33 1007.26 1007.70 1007.54 1007.08 1006.83 1006.44 1006.15 1005.85 1005.67 1005.76 1005.53 1005.21 1004.82 1004.66 1004.65 1004.89 1005.00 1004.94 1005.18
1011.21 1010.47 1009.55 1009.26 1009.34 1008.68 1008.21 1008.29 1008.33 1008.16 1008.05 1008.19 1008.24 1008.19 1007.67 1007.42 1007.11 1006.89 1007.02 1007.03 1007.21 1007.45 1007.63 1007.57 1007.62 1007.59 1007.79 1007.71 1007.46 1007.19 1006.77 1006.54 1006.17 1005.87 1005.70 1005.45 1005.35 1005.22 1005.12 1005.15 1005.27 1005.57 1005.72 1005.84
1010.70 1009.77 1009.25 1008.86 1008.16 1008.32 1008.14 1007.88 1007.79 1007.66 1007.88 1008.18 1008.17 1008.02 1007.42 1007.58 1007.38 1007.15 1007.15 1007.32 1007.44 1007.60 1007.77 1007.71 1007.70 1007.86 1007.73 1007.72 1007.51 1007.37 1007.27 1006.94 1006.74 1006.52 1006.32 1006.06 1005.75 1005.57 1005.53 1005.57 1005.64 1005.76 1005.99 1006.28
1010.07 1009.42 1009.15 1008.37 1007.95 1007.90 1007.75 1007.64 1007.80 1007.69 1007.59 1007.58 1007.36 1007.16 1007.31 1007.44 1007.54 1007.38 1007.38 1007.46 1007.71 1007.80 1007.89 1008.09 1007.95 1008.10 1008.00 1007.59 1007.38 1007.21 1007.15 1007.09 1007.01 1006.96 1006.64 1006.22 1005.96 1005.85 1005.63 1005.49 1005.58 1005.86 1006.03 1006.20
1008.78 1007.79 1007.74 1007.76 1007.72 1007.72 1007.73 1007.81 1007.94 1007.61 1007.33 1007.20 1007.18 1007.33 1007.35 1007.55 1007.44 1007.52 1007.59 1007.66 1007.84 1008.01 1008.20 1008.33 1008.36 1008.28 1008.00 1007.67 1007.44 1007.43 1007.39 1007.06 1006.94 1006.70 1006.24 1006.07 1005.97 1005.47 1005.14 1005.14 1005.25 1005.44 1005.72 1005.92
1007.32 1006.70 1007.30 1007.37 1007.65 1007.59 1007.62 1007.90 1008.16 1008.07 1007.76 1007.44 1006.89 1006.91 1007.27 1007.61 1007.64 1007.65 1007.70 1007.79 1007.74 1007.94 1008.09 1008.17 1008.18 1008.24 1008.05 1007.81 1007.68 1007.60 1007.69 1007.24 1007.06 1006.74 1006.50 1006.25 1005.96 1005.89 1005.79 1005.53 1005.82 1006.00 1005.96 1006.23
1006.47 1007.03 1007.81 1007.61 1007.54 1007.63 1007.88 1008.03 1008.15 1008.02 1007.51 1007.44 1007.36 1007.23 1007.27 1007.49 1007.73 1007.77 1007.75 1007.74 1007.73 1007.90 1008.08 1008.10 1008.26 1008.25 1008.11 1007.89 1007.65 1007.71 1007.67 1007.27 1007.08 1006.76 1006.41 1006.13 1006.08 1005.87 1005.96 1006.14 1006.07 1006.22 1006.30 1006.40
1006.44 1006.36 1007.13 1007.77 1008.13 1008.58 1008.43 1008.06 1008.18 1008.06 1007.90 1007.45 1007.26 1007.13 1007.32 1007.53 1007.70 1007.64 1007.64 1007.63 1007.67 1007.83 1007.91 1007.91 1008.10 1008.07 1007.72 1007.53 1007.73 1007.84 1007.58 1007.32 1007.17 1006.48 1006.08 1005.90 1005.56 1005.31 1005.31 1005.58 1005.77 1005.97 1006.17 1006.38
1007.60 1007.22 1007.25 1007.64 1008.27 1008.79 1008.97 1009.19 1008.23 1008.38 1008.17 1008.05 1007.91 1007.42 1007.19 1007.20 1007.40 1007.54 1007.43 1007.45 1007.72 1007.90 1008.02 1008.04 1008.03 1007.84 1007.80 1007.71 1007.86 1007.62 1007.60 1007.12 1007.02 1006.68 1006.29 1005.86 1005.64 1005.46 1005.24 1005.34 1005.50 1005.74 1005.97 1006.24
1007.87 1008.37 1007.91 1007.80 1007.52 1007.12 1008.44 1008.75 1008.56 1008.30 1008.28 1008.19 1007.88 1007.31 1007.42 1007.59 1007.71 1007.70 1007.57 1007.45 1007.60 1007.87 1007.71 1007.82 1007.95 1007.80 1007.63 1007.84 1007.73 1007.66 1007.87 1007.39 1007.03 1006.97 1006.57 1006.13 1005.91 1005.76 1005.85 1005.83 1005.75 1005.82 1006.12 1006.30
1007.70 1007.50 1007.66 1007.59 1007.44 1007.85 1008.04 1008.54 1008.29 1007.82 1008.19 1007.93 1007.74 1007.29 1007.36 1007.43 1007.56 1007.49 1007.47 1007.60 1007.61 1007.81 1007.77 1007.80 1007.67 1007.65 1007.80 1007.63 1007.58 1007.79 1007.54 1007.22 1007.17 1006.81 1006.40 1006.31 1006.06 1005.92 1005.94 1005.95 1006.01 1006.07 1006.20 1006.29
1007.72 1007.98 1007.79 1007.59 1007.57 1008.38 1008.64 1008.39 1008.74 1008.61 1008.45 1007.83 1007.60 1007.31 1007.33 1007.44 1007.43 1007.43 1007.46 1007.66 1007.72 1007.98 1007.87 1007.63 1007.46 1007.47 1007.54 1007.33 1007.21 1007.40 1007.33 1007.22 1007.06 1006.51 1006.16 1006.04 1006.04 1005.86 1005.91 1005.75 1005.75 1005.84 1005.70 1005.64
1008.19 1007.99 1007.72 1008.00 1008.23 1008.66 1008.63 1008.30 1008.07 1008.01 1007.72 1007.78 1007.32 1007.31 1007.47 1007.49 1007.51 1007.47 1007.58 1007.64 1007.48 1007.28 1007.31 1007.37 1007.18 1007.23 1007.18 1007.04 1006.82 1006.96 1006.93 1006.85 1006.56 1006.24 1005.84 1005.56 1005.56 1005.45 1005.40 1005.28 1005.38 1005.37 1005.32 1005.47
1008.42 1007.78 1007.86 1008.08 1008.11 1008.06 1007.88 1007.66 1007.90 1007.86 1007.73 1007.63 1007.31 1007.42 1007.41 1007.47 1007.40 1007.67 1007.65 1007.78 1007.17 1006.91 1006.98 1006.89 1007.12 1006.89 1006.73 1006.43 1006.42 1006.53 1006.51 1006.35 1006.13 1005.86 1005.46 1005.15 1005.06 1005.00 1004.88 1004.82 1004.80 1004.89 1004.85 1004.93
1008.43 1007.99 1007.88 1007.82 1007.88 1008.12 1007.99 1007.47 1007.59 1007.69 1007.37 1007.30 1007.43 1007.54 1007.57 1007.67 1007.58 1007.41 1007.20 1007.25 1006.72 1006.68 1006.82 1006.61 1006.64 1006.39 1006.21 1006.03 1006.25 1006.37 1006.28 1006.11 1005.73 1005.23 1004.91 1004.60 1004.41 1004.48 1004.29 1004.24 1004.19 1004.31 1004.22 1003.93
1009.18 1008.89 1008.73 1008.45 1008.17 1008.09 1007.80 1007.99 1007.47 1007.38 1007.28 1007.35 1007.46 1007.56 1007.66 1007.57 1007.54 1007.52 1007.40 1006.86 1006.66 1006.47 1006.54 1006.73 1006.54 1006.16 1005.96 1006.07 1006.21 1006.36 1006.19 1005.84 1005.42 1004.90 1004.38 1003.85 1003.49 1003.52 1003.40 1003.34 1003.28 1003.47 1003.69 1003.48
1009.21 1009.21 1009.03 1008.77 1008.45 1008.40 1008.80 1008.88 1008.16 1007.47 1007.53 1007.56 1007.48 1007.33 1007.39 1007.47 1007.40 1007.23 1007.19 1006.92 1006.74 1006.65 1006.81 1007.04 1006.67 1006.35 1006.19 1006.21 1006.10 1006.18 1006.07 1005.64 1005.23 1004.66 1004.03 1003.44 1003.28 1003.03 1002.86 1002.53 1002.56 1002.64 1002.79 1002.79
1009.64 1009.64 1009.60 1009.22 1009.31 1009.67 1009.41 1008.74 1007.91 1007.82 1007.93 1007.93 1007.55 1007.56 1007.90 1007.82 1007.98 1007.80 1007.47 1007.25 1007.05 1006.99 1006.97 1006.68 1006.30 1006.08 1006.07 1005.97 1005.76 1005.63 1005.64 1005.17 1004.82 1004.59 1004.13 1003.72 1002.85 1002.84 1002.62 1002.28 1002.17 1001.91 1002.05 1001.95
1010.00 1010.03 1009.74 1009.19 1009.07 1008.87 1008.87 1008.63 1008.97 1008.74 1008.44 1008.39 1008.31 1008.22 1008.39 1008.44 1008.41 1008.26 1008.08 1007.94 1007.72 1007.63 1007.60 1007.36 1007.07 1006.75 1006.72 1006.45 1006.01 1005.55 1005.12 1004.60 1004.30 1004.03 1004.19 1003.96 1004.11 1003.32 1002.61 1002.26 1002.21 1002.05 1002.02 1001.90
1009.87 1009.66 1009.44 1009.12 1008.98 1009.24 1009.28 1009.22 1009.09 1008.91 1008.79 1008.66 1008.75 1008.80 1008.92 1008.83 1008.68 1008.50 1008.33 1008.26 1008.13 1007.91 1007.76 1007.61 1007.31 1006.92 1006.70 1006.38 1005.98 1005.47 1005.25 1004.77 1004.17 1003.90 1004.28 1004.23 1004.11 1004.01 1003.29 1002.41 1001.94 1002.00 1001.88 1001.97
Wind_Speed
5 7 7 12 17 7 3 4 3 7 5 5 5 5 5 5 6 6 6 3 6 2 1 2 1 3 4 4 3 8 6 6 9 6 11 15 13 7 9 10 15 14 12 10
5 9 12 15 4 2 2 2 5 4 6 1 3 4 6 5 6 6 8 4 4 4 7 8 6 5 3 1 3 7 4 4 3 5 4 5 6 7 10 8 7 6 6 7
6 8 9 6 2 3 3 3 4 3 6 5 5 4 3 7 7 9 8 5 5 6 8 7 6 5 4 3 2 5 2 4 4 4 5 5 8 8 10 9 7 11 11 9
8 3 5 4 2 1 4 3 3 4 6 10 8 2 5 4 5 7 8 6 4 4 6 6 5 6 6 6 9 7 7 4 2 3 5 5 6 8 7 7 7 7 6 6
3 3 2 4 1 0 3 4 3 3 6 8 8 3 3 2 4 7 5 4 3 6 5 4 5 3 6 8 6 6 6 5 4 3 5 5 5 6 6 5 5 3 3 6
2 1 5 6 4 7 3 4 3 4 4 5 7 5 3 8 9 4 4 2 5 8 8 9 7 7 11 8 7 7 5 4 4 6 6 4 4 6 3 3 3 4 4 4
2 6 6 6 4 6 2 5 7 4 5 1 1 4 6 9 10 3 3 8 8 9 7 6 6 7 9 7 6 4 4 4 5 6 5 5 4 3 2 2 3 4 3 3
2 1 6 2 3 2 6 2 4 4 3 2 2 4 6 7 4 3 3 7 8 7 6 5 6 7 6 6 5 5 6 5 5 4 3 3 5 5 4 4 3 4 3 3
8 6 7 4 2 7 2 4 5 4 2 1 4 4 6 5 7 4 5 5 5 5 4 4 4 5 6 4 6 6 7 7 6 4 5 5 5 5 4 5 5 4 3 3
2 6 5 5 7 9 5 5 6 4 4 3 4 7 3 0 1 4 4 5 4 5 5 5 4 4 3 3 4 5 6 7 6 6 4 6 3 2 2 3 3 4 3 2
5 7 6 7 7 6 5 3 4 5 5 4 1 3 4 3 3 3 5 5 5 5 5 3 3 3 3 4 5 6 6 6 6 2 3 4 3 4 3 3 2 3 3 4
7 8 5 5 6 6 5 6 3 1 5 3 0 4 5 4 3 3 5 4 5 5 3 1 1 3 4 4 5 5 6 5 4 5 4 3 4 6 6 6 4 2 3 3
7 4 7 6 7 5 4 4 4 2 4 5 3 5 5 3 2 4 5 4 5 3 2 1 3 4 2 4 4 5 5 6 5 5 5 5 3 3 3 3 5 5 6 5
5 8 4 5 6 6 2 5 4 3 4 5 4 3 4 5 3 4 4 3 3 2 1 2 3 3 0 2 4 5 6 7 4 5 5 3 4 3 3 3 2 3 3 3
4 1 6 10 13 8 5 4 5 6 6 7 3 7 6 6 3 2 2 3 5 4 1 3 2 1 3 5 5 6 5 5 5 5 4 3 4 4 3 3 4 2 0 0
5 12 12 12 7 3 6 5 3 3 7 8 6 5 5 6 6 3 2 2 2 2 4 1 3 2 4 4 4 5 6 8 6 5 4 5 4 5 5 3 1 1 2 2
10 5 6 6 11 12 3 6 1 3 4 8 8 5 6 5 3 3 4 4 2 4 4 3 3 2 3 3 3 3 4 5 5 4 3 3 1 3 3 3 2 0 0 1
4 5 5 7 4 6 7 3 3 4 6 12 9 5 6 6 6 6 5 4 2 3 0 4 5 3 3 4 4 4 4 4 4 4 4 3 2 1 0 1 2 2 2 2
7 6 4 4 5 3 2 4 3 6 7 8 5 2 2 3 2 3 2 1 3 3 6 6 7 6 5 6 4 3 4 5 5 5 5 4 3 4 3 3 3 4 4 3
3 2 6 1 3 3 4 5 7 4 5 6 3 2 2 2 2 2 1 4 6 6 3 6 5 5 5 7 4 2 4 5 5 5 5 4 5 5 5 5 4 4 4 3
8 1 5 5 3 4 2 7 7 8 8 6 6 3 4 2 2 3 3 3 8 5 7 6 4 5 3 5 4 3 4 5 5 5 5 7 5 6 5 5 5 5 5 5
6 7 2 5 5 6 8 6 7 6 5 3 3 2 2 3 3 4 3 5 5 9 4 4 4 8 6 7 3 4 5 6 6 5 5 6 5 6 6 6 6 5 6 5
4 3 3 5 2 2 6 8 3 3 0 2 2 2 2 3 2 1 3 6 4 4 3 4 7 10 11 5 4 5 6 6 6 6 6 6 5 5 5 8 8 6 6 5
3 4 2 3 5 5 8 12 8 4 2 2 2 2 0 3 3 1 4 6 3 5 3 5 6 10 9 4 3 3 5 5 7 8 10 7 5 4 5 5 5 5 6 5
2 4 4 4 6 2 7 4 8 6 6 4 6 5 6 3 2 3 3 4 7 4 2 4 6 7 4 3 2 2 2 3 7 9 9 7 1 2 4 3 5 6 5 5
2 1 3 1 4 4 6 6 5 4 4 4 3 3 4 4 4 4 4 5 5 6 5 5 5 5 5 5 5 4 4 1 3 4 7 8 8 5 1 3 4 4 3 4
3 4 3 5 4 3 2 4 3 2 3 3 3 5 4 4 5 5 6 5 4 4 4 5 4 4 4 4 5 4 4 4 5 5 3 3 4 6 5 2 3 3 4 6
Wind_Direction
255 264 284 289 289 324 52 260 153 262 257 290 322 330 334 349 355 325 312 121 289 285 319 45 20 159 26 18 82 73 81 155 169 236 163 176 196 194 174 178 192 209 235 231
274 288 285 291 351 57 328 328 269 287 276 289 304 318 323 335 330 328 311 352 40 5 6 14 30 63 112 210 93 109 122 122 159 165 162 173 172 192 234 229 253 225 240 236
265 275 296 294 239 302 202 209 224 252 249 299 281 311 321 342 341 330 340 68 53 18 23 3 21 33 36 11 36 67 130 159 193 195 192 169 177 188 198 208 210 209 212 200
270 293 234 237 347 300 301 187 264 262 287 289 279 7 67 29 324 318 351 73 55 56 38 13 28 33 72 63 53 56 51 63 200 199 215 189 184 184 203 185 220 208 193 165
182 197 262 286 251 280 117 281 303 264 313 305 325 308 225 50 292 271 294 298 145 105 101 65 54 19 75 59 49 48 40 35 20 34 232 216 204 205 218 181 195 209 202 187
109 33 238 235 236 175 143 262 259 261 273 339 356 7 281 338 317 272 267 244 84 65 63 53 30 18 55 38 38 35 28 21 20 20 27 32 195 195 207 179 152 112 107 93
153 221 271 233 224 123 147 236 211 233 248 226 349 225 293 327 342 35 183 98 82 71 72 60 44 44 44 33 20 338 4 24 38 34 15 17 25 345 115 70 56 87 103 179
133 259 294 355 310 249 220 75 206 251 229 207 240 300 284 303 282 279 91 88 84 80 74 70 71 69 47 27 344 16 20 3 7 33 15 15 24 18 34 51 20 2 25 312
174 212 243 290 337 305 179 155 205 248 230 280 307 266 275 270 292 134 120 99 93 103 91 66 73 71 59 2 20 9 16 13 356 338 2 10 20 27 53 57 76 63 53 34
50 242 250 158 175 229 217 199 214 202 145 188 255 272 262 53 110 114 123 121 110 85 63 45 36 36 37 3 16 34 22 15 16 13 337 328 346 4 46 92 86 89 82 49
271 280 284 263 220 205 205 187 225 176 207 206 246 234 190 179 160 148 117 109 109 102 97 63 39 41 356 13 20 15 7 0 355 359 353 334 301 239 222 246 175 165 172 153
227 224 173 214 206 215 191 219 226 321 330 307 299 252 135 140 175 141 120 132 121 106 99 107 283 350 340 357 21 6 353 352 334 324 330 338 343 334 247 210 171 175 140 128
240 214 190 169 187 216 187 128 125 287 284 315 240 168 135 135 103 117 130 137 119 149 188 287 347 348 295 350 12 1 349 339 331 336 337 327 348 8 335 360 206 192 169 193
227 111 55 193 201 203 190 84 17 340 356 321 249 104 118 131 135 145 176 176 160 159 34 62 46 78 302 12 12 358 345 318 318 293 293 296 281 267 232 236 268 286 191 227
38 85 111 83 51 10 7 58 13 343 356 323 227 146 150 141 166 181 159 134 95 94 116 59 96 248 337 4 12 348 353 337 329 325 329 320 335 332 280 219 213 201 117 140
93 92 92 91 89 50 12 326 62 336 4 1 271 186 181 153 157 190 234 155 95 268 289 236 203 277 324 15 356 348 336 329 349 338 352 11 359 14 29 57 118 167 157 192
107 98 116 129 154 175 175 285 276 309 309 325 255 146 147 160 167 209 254 276 280 319 306 172 221 259 338 319 333 310 304 314 340 322 329 350 51 47 9 27 8 346 259 223
50 126 227 201 193 121 149 249 240 314 317 301 272 179 169 178 206 227 243 273 13 24 331 204 231 248 291 298 308 299 298 316 325 312 300 331 306 191 200 136 243 199 213 215
61 53 80 153 140 62 294 173 223 251 265 279 215 174 217 228 197 225 221 233 300 281 259 238 251 253 280 274 266 278 283 293 296 303 282 261 253 245 231 216 202 221 215 178
320 202 123 219 126 200 246 238 220 256 315 297 89 106 167 186 232 302 256 243 246 233 239 228 263 265 284 294 267 283 286 282 291 288 299 265 221 238 225 221 226 222 214 210
262 187 173 181 189 141 321 277 246 246 277 196 124 131 161 256 343 3 332 305 278 253 207 231 244 276 228 236 263 285 294 304 299 281 294 286 242 250 223 218 213 219 206 221
7 7 355 285 290 256 287 204 173 187 168 129 96 88 47 324 321 313 212 222 279 220 221 245 261 263 253 253 268 281 295 294 281 288 277 269 240 230 226 219 217 214 230 220
92 68 29 339 324 143 36 343 170 176 237 344 20 311 285 266 251 294 334 318 316 220 247 275 288 263 267 286 290 298 296 286 282 279 268 262 263 240 223 218 220 189 225 224
57 38 25 31 72 61 71 300 303 341 16 328 299 289 168 15 352 271 278 298 299 286 315 356 334 317 318 289 287 284 294 301 307 303 301 280 264 267 256 231 205 206 223 207
41 342 323 72 78 121 213 315 351 38 80 66 60 45 32 27 98 311 348 15 24 23 40 341 9 24 18 350 351 16 350 22 24 359 345 314 290 10 347 320 248 215 222 212
47 11 286 36 95 38 359 4 353 313 58 44 14 33 69 43 58 57 49 28 25 10 4 346 340 357 349 340 327 309 293 312 32 54 0 359 337 340 83 74 37 5 336 285
339 341 357 2 15 32 306 291 251 2 17 35 43 20 57 42 34 31 29 18 19 10 358 336 334 333 316 299 289 314 324 346 24 31 349 293 311 305 301 355 79 28 30 16